�N����,����,�g�[���i���ԁj���x,�g�[�����x,��g�[���i���ցj���x,����
 2003/12/01, 0:00,20.9,78,16.2,16.1
 2003/12/01, 0:15,20.6,77,16.1,16.1
 2003/12/01, 0:30,20.6,76,16.1,16.2
 2003/12/01, 0:45,20.2,75.5,16.1,16.2
 2003/12/01, 1:00,20.1,76,16,16.2
 2003/12/01, 1:15,20,75,16,16.2
 2003/12/01, 1:30,19.8,75,16,16.2
 2003/12/01, 1:45,19.6,75,16,16.2
 2003/12/01, 2:00,19.5,75,16,16.3
 2003/12/01, 2:15,19.5,74,16,16.3
 2003/12/01, 2:30,19.3,74,15.9,16.3
 2003/12/01, 2:45,19.2,74,15.9,16.2
 2003/12/01, 3:00,19.1,74,16,16.3
 2003/12/01, 3:15,19,74,15.9,16.2
 2003/12/01, 3:30,19,74,15.9,16.3
 2003/12/01, 3:45,18.9,74,15.9,16.3
 2003/12/01, 4:00,18.8,74,15.9,16.3
 2003/12/01, 4:15,18.8,74,15.8,16.3
 2003/12/01, 4:30,18.7,74,15.9,16.3
 2003/12/01, 4:45,18.6,74,15.9,16.3
 2003/12/01, 5:00,18.6,74,15.8,16.3
 2003/12/01, 5:15,18.5,74,15.8,16.3
 2003/12/01, 5:30,18.5,74,15.8,16.3
 2003/12/01, 5:45,18.4,74,15.8,16.1
 2003/12/01, 6:00,18.4,74,15.8,16
 2003/12/01, 6:15,18.3,74,15.8,16
 2003/12/01, 6:30,18.2,74,15.7,16
 2003/12/01, 6:45,18.2,73.5,15.7,15.9
 2003/12/01, 7:00,18.2,73,15.7,15.9
 2003/12/01, 7:15,18.5,75,15.8,16
 2003/12/01, 7:30,19.8,77,15.8,15.9
 2003/12/01, 7:45,20.8,79.5,15.8,16.1
 2003/12/01, 8:00,20,76,15.8,16.1
 2003/12/01, 8:15,20.1,78.5,15.9,16.1
 2003/12/01, 8:30,20.4,78,15.9,16.1
 2003/12/01, 8:45,21,71.5,16,16.1
 2003/12/01, 9:00,21.6,73,15.9,16.1
 2003/12/01, 9:15,21.4,70,15.8,16.2
 2003/12/01, 9:30,20.5,70,15.9,16
 2003/12/01, 9:45,20,68.5,15.9,16
 2003/12/01,10:00,19.7,69,15.9,16.1
 2003/12/01,10:15,19.5,69.5,15.9,16
 2003/12/01,10:30,19.3,70,15.9,16.1
 2003/12/01,10:45,19.2,70,15.9,16
 2003/12/01,11:00,19.1,70,15.9,16.1
 2003/12/01,11:15,19,70,15.9,16.1
 2003/12/01,11:30,18.9,70,15.9,16
 2003/12/01,11:45,18.9,70,15.9,16
 2003/12/01,12:00,18.9,70,16,16.1
 2003/12/01,12:15,18.9,70,15.9,16
 2003/12/01,12:30,18.9,70,16.1,16
 2003/12/01,12:45,18.9,70,16,16
 2003/12/01,13:00,18.9,70,16,16
 2003/12/01,13:15,18.8,70,16,16
 2003/12/01,13:30,18.8,70,16,16.1
 2003/12/01,13:45,18.8,70,16,16
 2003/12/01,14:00,18.7,70,16,16.1
 2003/12/01,14:15,18.7,70,16.1,16.1
 2003/12/01,14:30,18.7,70,16.2,16.1
 2003/12/01,14:45,18.9,71.5,16.2,16.2
 2003/12/01,15:00,19.1,72,16.2,16.3
 2003/12/01,15:15,19.1,72,16.2,16.2
 2003/12/01,15:30,19.1,72,16.2,16.2
 2003/12/01,15:45,19,72,16.2,16.2
 2003/12/01,16:00,19.1,72,16.2,16.1
 2003/12/01,16:15,19,72,16.2,16.2
 2003/12/01,16:30,18.9,72,16.1,16.2
 2003/12/01,16:45,18.8,71.5,16.2,16.1
 2003/12/01,17:00,18.7,72,16.2,16.2
 2003/12/01,17:15,18.5,71,16.2,16.2
 2003/12/01,17:30,18.4,71,16.3,16.2
 2003/12/01,17:45,18.4,71,16.2,16.3
 2003/12/01,18:00,18.3,71,16.2,16.3
 2003/12/01,18:15,18.2,71,16.2,16.2
 2003/12/01,18:30,18.2,71,16.2,16.3
 2003/12/01,18:45,18.1,70.5,16.1,16.3
 2003/12/01,19:00,18.1,70,16.2,16.3
 2003/12/01,19:15,18,70.5,16.1,16.3
 2003/12/01,19:30,18,70,16.1,16.3
 2003/12/01,19:45,17.9,70,16.1,16.3
 2003/12/01,20:00,17.8,71,16.1,16.3
 2003/12/01,20:15,17.8,70,16,16.4
 2003/12/01,20:30,17.7,71,16.1,16.4
 2003/12/01,20:45,17.7,70,16,16.4
 2003/12/01,21:00,17.7,70,16,16.4
 2003/12/01,21:15,17.6,70.5,16,16.4
 2003/12/01,21:30,17.6,70,16,16.5
 2003/12/01,21:45,17.6,70,16,16.4
 2003/12/01,22:00,17.5,70,15.9,16.4
 2003/12/01,22:15,17.5,70,15.9,16.5
 2003/12/01,22:30,17.4,70,15.8,16.5
 2003/12/01,22:45,17.5,70.5,15.9,16.3
 2003/12/01,23:00,18.6,73,16,16.3
 2003/12/01,23:15,20,70.5,15.9,16.3
 2003/12/01,23:30,20.9,67,15.9,16.3
 2003/12/01,23:45,21.5,66,15.9,16.3
 2003/12/02, 0:00,22,67,15.9,16.3
 2003/12/02, 0:15,22.5,66,15.8,16.2
 2003/12/02, 0:30,21.4,64,15.7,16.1
 2003/12/02, 0:45,20.5,67.5,15.8,16.1
 2003/12/02, 1:00,20.2,67,15.7,16.1
 2003/12/02, 1:15,20.1,67,15.7,16.1
 2003/12/02, 1:30,19.8,68,15.7,16.1
 2003/12/02, 1:45,19.6,69,15.7,16.1
 2003/12/02, 2:00,19.5,69,15.6,16.2
 2003/12/02, 2:15,19.3,69.5,15.6,16.1
 2003/12/02, 2:30,19.2,69,15.5,16.1
 2003/12/02, 2:45,19.1,70,15.6,16.1
 2003/12/02, 3:00,19,70,15.5,16.2
 2003/12/02, 3:15,19,70,15.5,16.1
 2003/12/02, 3:30,18.8,70,15.5,16.2
 2003/12/02, 3:45,18.8,70,15.4,16.1
 2003/12/02, 4:00,18.7,70,15.5,16.1
 2003/12/02, 4:15,18.6,71,15.4,16.1
 2003/12/02, 4:30,18.6,71,15.4,16.1
 2003/12/02, 4:45,18.5,71,15.4,16.1
 2003/12/02, 5:00,18.5,71,15.4,16.2
 2003/12/02, 5:15,18.4,71,15.4,16.1
 2003/12/02, 5:30,18.3,71,15.4,16.1
 2003/12/02, 5:45,18.2,71.5,15.4,16.2
 2003/12/02, 6:00,18.2,71,15.3,16.1
 2003/12/02, 6:15,18.1,71,15.3,16.1
 2003/12/02, 6:30,18.1,72,15.3,16.2
 2003/12/02, 6:45,18.6,73,15.3,16
 2003/12/02, 7:00,20.4,76,15.3,16
 2003/12/02, 7:15,20.7,77,15.4,15.9
 2003/12/02, 7:30,21,74,15.4,15.9
 2003/12/02, 7:45,20,73,15.4,15.9
 2003/12/02, 8:00,18.9,76,15.4,15.9
 2003/12/02, 8:15,18.6,79,15.4,15.9
 2003/12/02, 8:30,18.3,83,15.4,15.9
 2003/12/02, 8:45,18.1,84.5,15.4,15.9
 2003/12/02, 9:00,18,86,15.4,16
 2003/12/02, 9:15,18,85.5,15.4,15.9
 2003/12/02, 9:30,17.9,85,15.4,15.9
 2003/12/02, 9:45,18,86,15.4,15.9
 2003/12/02,10:00,17.9,86,15.5,15.9
 2003/12/02,10:15,18,84,15.5,15.9
 2003/12/02,10:30,18,83,15.5,15.9
 2003/12/02,10:45,18,83,15.5,15.9
 2003/12/02,11:00,17.9,84,15.6,15.9
 2003/12/02,11:15,18,84.5,15.6,15.9
 2003/12/02,11:30,17.9,85,15.6,15.9
 2003/12/02,11:45,17.8,85.5,15.6,16
 2003/12/02,12:00,17.7,86,15.6,16
 2003/12/02,12:15,17.7,86,15.6,16
 2003/12/02,12:30,17.8,84,15.6,16
 2003/12/02,12:45,17.7,85,15.6,16.1
 2003/12/02,13:00,17.7,84,15.6,16.1
 2003/12/02,13:15,17.8,83.5,15.6,16.1
 2003/12/02,13:30,17.7,83,15.6,16.1
 2003/12/02,13:45,17.8,83,15.6,16
 2003/12/02,14:00,17.7,83,15.6,16.1
 2003/12/02,14:15,17.6,84,15.6,16.1
 2003/12/02,14:30,17.5,84,15.5,16.1
 2003/12/02,14:45,17.6,83,15.6,16.1
 2003/12/02,15:00,17.7,82,15.6,16.2
 2003/12/02,15:15,17.6,83,15.6,16.2
 2003/12/02,15:30,17.5,84,15.5,16.2
 2003/12/02,15:45,17.5,83.5,15.6,16.1
 2003/12/02,16:00,17.4,81,15.5,16.2
 2003/12/02,16:15,17.4,80.5,15.4,16.2
 2003/12/02,16:30,17.3,79,15.5,16.2
 2003/12/02,16:45,17.2,78.5,15.4,16.2
 2003/12/02,17:00,17.2,77,15.4,16.3
 2003/12/02,17:15,17.1,77.5,15.4,16.2
 2003/12/02,17:30,17.1,77,15.3,16.3
 2003/12/02,17:45,17,78,15.4,16.2
 2003/12/02,18:00,17,80,15.3,16.3
 2003/12/02,18:15,17,78.5,15.3,16.3
 2003/12/02,18:30,17,77,15.2,16.3
 2003/12/02,18:45,16.9,77,15.2,16.3
 2003/12/02,19:00,16.8,77,15.2,16.2
 2003/12/02,19:15,16.8,76.5,15.2,16.2
 2003/12/02,19:30,16.7,76,15.1,16.3
 2003/12/02,19:45,16.6,76,15.1,16.2
 2003/12/02,20:00,16.6,76,15.1,16.2
 2003/12/02,20:15,16.5,75,15.1,16.2
 2003/12/02,20:30,16.5,75,15,16.3
 2003/12/02,20:45,16.4,75,14.9,16.2
 2003/12/02,21:00,16.4,75,14.9,16.3
 2003/12/02,21:15,16.3,75,14.9,16.2
 2003/12/02,21:30,16.2,75,14.8,16.3
 2003/12/02,21:45,16.2,75,14.8,16.2
 2003/12/02,22:00,16.1,74,14.8,16.2
 2003/12/02,22:15,16.6,76.5,14.8,16.2
 2003/12/02,22:30,17.5,76,14.8,16.2
 2003/12/02,22:45,18,75,14.8,15.9
 2003/12/02,23:00,18.8,74,14.8,16.1
 2003/12/02,23:15,20.2,68.5,14.8,16
 2003/12/02,23:30,20.7,69,14.9,16
 2003/12/02,23:45,21,69,14.9,15.9
 2003/12/03, 0:00,21.2,68,14.8,15.9
 2003/12/03, 0:15,19.6,71,14.7,15.9
 2003/12/03, 0:30,19,72,14.7,15.9
 2003/12/03, 0:45,18.6,72,14.6,15.8
 2003/12/03, 1:00,18.3,72,14.6,15.9
 2003/12/03, 1:15,18,72,14.6,15.8
 2003/12/03, 1:30,17.8,72,14.5,15.8
 2003/12/03, 1:45,17.6,72,14.5,15.8
 2003/12/03, 2:00,17.6,72,14.5,15.7
 2003/12/03, 2:15,17.5,72,14.4,15.7
 2003/12/03, 2:30,17.4,72,14.4,15.7
 2003/12/03, 2:45,17.3,72,14.4,15.7
 2003/12/03, 3:00,17.2,72,14.4,15.7
 2003/12/03, 3:15,17.1,72,14.4,15.6
 2003/12/03, 3:30,17,72,14.2,15.7
 2003/12/03, 3:45,17,72,14.3,15.6
 2003/12/03, 4:00,16.9,72,14.3,15.6
 2003/12/03, 4:15,16.8,72,14.2,15.6
 2003/12/03, 4:30,16.7,72,14.2,15.5
 2003/12/03, 4:45,16.6,72,14.2,15.5
 2003/12/03, 5:00,16.5,72,14.1,15.4
 2003/12/03, 5:15,16.5,72,14.1,15.5
 2003/12/03, 5:30,16.3,71,14.1,15.4
 2003/12/03, 5:45,16.2,71,14,15.4
 2003/12/03, 6:00,16.2,71,14,15.3
 2003/12/03, 6:15,16,71,13.9,15.3
 2003/12/03, 6:30,16,71,13.9,15.3
 2003/12/03, 6:45,16.5,75.5,13.9,15.6
 2003/12/03, 7:00,17.8,78,13.8,15.6
 2003/12/03, 7:15,19.1,74,13.8,15.6
 2003/12/03, 7:30,19.6,74,13.7,15.8
 2003/12/03, 7:45,19.9,72,13.7,15.8
 2003/12/03, 8:00,20.5,71,13.7,15.7
 2003/12/03, 8:15,19.6,71,13.6,15.6
 2003/12/03, 8:30,18.5,69,13.7,15.6
 2003/12/03, 8:45,18.2,69.5,13.8,15.5
 2003/12/03, 9:00,18.3,69,13.9,15.5
 2003/12/03, 9:15,18.6,67.5,14,15.4
 2003/12/03, 9:30,19.7,63,14.1,15.4
 2003/12/03, 9:45,20.5,60.5,14.3,15.4
 2003/12/03,10:00,20.2,61,14.2,15.3
 2003/12/03,10:15,19.8,63,14.4,15.3
 2003/12/03,10:30,19.4,63,14.4,15.3
 2003/12/03,10:45,20.8,60.5,14.4,15.2
 2003/12/03,11:00,21.9,57,14.6,15.2
 2003/12/03,11:15,20.8,58.5,14.8,15.2
 2003/12/03,11:30,19.8,63,14.9,15.2
 2003/12/03,11:45,19.9,63,14.9,15.2
 2003/12/03,12:00,19.9,63,15,15.1
 2003/12/03,12:15,20.3,62,15.1,15.2
 2003/12/03,12:30,20.6,62,15.3,15.1
 2003/12/03,12:45,20.9,61,15.4,15.1
 2003/12/03,13:00,21.1,61,15.4,15.1
 2003/12/03,13:15,21.1,61.5,15.5,15.1
 2003/12/03,13:30,20.9,62,15.4,15.1
 2003/12/03,13:45,20.7,62.5,15.4,15.1
 2003/12/03,14:00,20.4,63,15.4,15.1
 2003/12/03,14:15,20.1,63,15.3,15.1
 2003/12/03,14:30,20.1,63,15.3,15.1
 2003/12/03,14:45,20,63,15.3,15.1
 2003/12/03,15:00,19.9,63,15.3,15.1
 2003/12/03,15:15,19.8,63,15.3,15.2
 2003/12/03,15:30,19.8,63,15.3,15.1
 2003/12/03,15:45,19.7,64,15.3,15.2
 2003/12/03,16:00,19.6,64,15.3,15.2
 2003/12/03,16:15,19.6,64,15.3,15.1
 2003/12/03,16:30,19.4,65,15.2,15.2
 2003/12/03,16:45,19.4,65,15.2,15.2
 2003/12/03,17:00,19.2,65,15.2,15.2
 2003/12/03,17:15,19.1,65,15.2,15.2
 2003/12/03,17:30,19,66,15.2,15.2
 2003/12/03,17:45,18.9,66,15.1,15.2
 2003/12/03,18:00,18.8,66,15.1,15.2
 2003/12/03,18:15,18.6,66,15.1,15.3
 2003/12/03,18:30,18.6,66,15,15.3
 2003/12/03,18:45,18.5,66,15,15.2
 2003/12/03,19:00,18.4,67,15,15.3
 2003/12/03,19:15,18.2,67,14.9,15.3
 2003/12/03,19:30,18.1,67,14.9,15.3
 2003/12/03,19:45,18,67,14.9,15.2
 2003/12/03,20:00,18,67,14.8,15.3
 2003/12/03,20:15,17.9,67,14.8,15.3
 2003/12/03,20:30,17.7,67,14.7,15.3
 2003/12/03,20:45,17.6,67,14.7,15.2
 2003/12/03,21:00,17.5,67,14.6,15.3
 2003/12/03,21:15,17.4,67,14.6,15.2
 2003/12/03,21:30,17.3,67,14.6,15.2
 2003/12/03,21:45,17,67,14.6,15.4
 2003/12/03,22:00,17.4,68,14.6,15.7
 2003/12/03,22:15,19.5,65.5,15.1,15.6
 2003/12/03,22:30,20.2,63,15.3,15.7
 2003/12/03,22:45,20.6,63,15.4,15.6
 2003/12/03,23:00,20.9,62,16,15.6
 2003/12/03,23:15,20.2,64,15.4,15.6
 2003/12/03,23:30,20.3,64,14.9,15.6
 2003/12/03,23:45,19.3,65,14.8,15.7
 2003/12/04, 0:00,18.4,66,14.8,15.7
 2003/12/04, 0:15,18,67,14.7,15.7
 2003/12/04, 0:30,17.6,68,14.6,15.7
 2003/12/04, 0:45,17.4,68,14.6,15.6
 2003/12/04, 1:00,17.2,68,14.5,15.6
 2003/12/04, 1:15,17,68,14.4,15.6
 2003/12/04, 1:30,16.9,68,14.4,15.6
 2003/12/04, 1:45,16.8,67.5,14.3,15.4
 2003/12/04, 2:00,16.6,67,14.2,15.5
 2003/12/04, 2:15,16.5,67.5,14.1,15.4
 2003/12/04, 2:30,16.3,68,14.1,15.3
 2003/12/04, 2:45,16.2,68,14,15.3
 2003/12/04, 3:00,16,68,14,15.3
 2003/12/04, 3:15,16,68,13.9,15.2
 2003/12/04, 3:30,15.9,68,13.8,15.1
 2003/12/04, 3:45,15.8,68,13.8,15.1
 2003/12/04, 4:00,15.6,68,13.7,15.1
 2003/12/04, 4:15,15.6,68,13.6,14.9
 2003/12/04, 4:30,15.4,68,13.5,15
 2003/12/04, 4:45,15.4,68,13.4,14.9
 2003/12/04, 5:00,15.2,68,13.4,14.9
 2003/12/04, 5:15,15.1,68.5,13.3,14.9
 2003/12/04, 5:30,15,69,13.3,14.8
 2003/12/04, 5:45,15.9,71,13.2,15.6
 2003/12/04, 6:00,17.5,78,13.3,15.4
 2003/12/04, 6:15,18.5,72.5,13.1,15.4
 2003/12/04, 6:30,18.5,72,13.2,15.4
 2003/12/04, 6:45,18.6,71.5,13.2,15.2
 2003/12/04, 7:00,18.8,70,13.1,15.3
 2003/12/04, 7:15,18.8,68.5,13.1,15.2
 2003/12/04, 7:30,18,66,13.1,15.2
 2003/12/04, 7:45,18,66.5,13.1,15.1
 2003/12/04, 8:00,18.8,68,13,15.1
 2003/12/04, 8:15,19.2,65.5,13,15.1
 2003/12/04, 8:30,19.5,68,13,15.1
 2003/12/04, 8:45,19.8,68,13,15.1
 2003/12/04, 9:00,20.1,68,13,15
 2003/12/04, 9:15,19.5,66.5,13,15
 2003/12/04, 9:30,19.2,63,13.1,15
 2003/12/04, 9:45,18,63,13,14.9
 2003/12/04,10:00,17.4,65,13,14.9
 2003/12/04,10:15,17.1,66,13,14.9
 2003/12/04,10:30,17,66,13,14.9
 2003/12/04,10:45,18.3,60.5,13.1,14.8
 2003/12/04,11:00,17.6,63,13.2,14.8
 2003/12/04,11:15,19.4,57.5,13.6,14.8
 2003/12/04,11:30,18.5,60,13.8,14.7
 2003/12/04,11:45,18.2,61,13.9,14.7
 2003/12/04,12:00,18.2,61,14.1,14.7
 2003/12/04,12:15,18.3,60.5,14.2,14.6
 2003/12/04,12:30,18.2,61,14.2,14.7
 2003/12/04,12:45,18,61.5,14.2,14.6
 2003/12/04,13:00,18,62,14.2,14.6
 2003/12/04,13:15,18.4,61,14.2,14.6
 2003/12/04,13:30,18.5,61,14.3,14.6
 2003/12/04,13:45,18.5,60.5,14.3,14.6
 2003/12/04,14:00,18.7,60,14.4,14.6
 2003/12/04,14:15,18.9,60,14.4,14.6
 2003/12/04,14:30,18.9,60,14.5,14.5
 2003/12/04,14:45,18.9,60,14.4,14.6
 2003/12/04,15:00,18.8,60,14.4,14.6
 2003/12/04,15:15,18.6,60,14.4,14.6
 2003/12/04,15:30,18.4,61,14.4,14.6
 2003/12/04,15:45,18.2,61,14.4,14.6
 2003/12/04,16:00,18,61,14.3,14.6
 2003/12/04,16:15,17.9,61,14.3,14.6
 2003/12/04,16:30,17.7,62,14.2,14.5
 2003/12/04,16:45,17.5,62,14.2,14.6
 2003/12/04,17:00,17.5,62,14.2,14.6
 2003/12/04,17:15,17.4,62,14.1,14.6
 2003/12/04,17:30,17.3,62,14.1,14.6
 2003/12/04,17:45,17.1,63,14.1,14.6
 2003/12/04,18:00,17.1,63,14,14.6
 2003/12/04,18:15,17,63,13.9,14.6
 2003/12/04,18:30,16.9,63,13.9,14.6
 2003/12/04,18:45,16.8,63,13.9,14.6
 2003/12/04,19:00,16.7,63,13.8,14.6
 2003/12/04,19:15,16.5,63.5,13.9,14.9
 2003/12/04,19:30,17.8,64,13.8,14.9
 2003/12/04,19:45,18.2,63.5,13.9,14.9
 2003/12/04,20:00,18.7,64,13.8,14.9
 2003/12/04,20:15,19.5,63.5,13.8,14.9
 2003/12/04,20:30,18.4,63,13.8,14.9
 2003/12/04,20:45,18.8,66,13.8,14.9
 2003/12/04,21:00,19,65,13.7,14.8
 2003/12/04,21:15,20.2,66.5,13.7,15.8
 2003/12/04,21:30,22.3,64,13.7,15.7
 2003/12/04,21:45,22.6,62,13.6,15.7
 2003/12/04,22:00,22.6,61,13.5,15.6
 2003/12/04,22:15,22.8,60.5,13.5,15.4
 2003/12/04,22:30,22.2,63,13.5,15.4
 2003/12/04,22:45,22,64,13.4,15.4
 2003/12/04,23:00,22,64,13.4,15.4
 2003/12/04,23:15,21.7,63,13.3,15.2
 2003/12/04,23:30,20.8,62,13.3,15.2
 2003/12/04,23:45,20.2,62,13.2,15.2
 2003/12/05, 0:00,19.8,62,13.2,15.2
 2003/12/05, 0:15,19.3,62,13.1,15.1
 2003/12/05, 0:30,19,62,13.1,15.1
 2003/12/05, 0:45,18.7,63,13.1,15
 2003/12/05, 1:00,18.5,63,13,15
 2003/12/05, 1:15,18.2,63,12.9,15
 2003/12/05, 1:30,18,63,12.9,14.9
 2003/12/05, 1:45,17.8,63,12.9,14.9
 2003/12/05, 2:00,17.6,63,12.8,14.8
 2003/12/05, 2:15,17.4,63,12.8,14.8
 2003/12/05, 2:30,17.2,63,12.7,14.8
 2003/12/05, 2:45,17,63,12.6,14.7
 2003/12/05, 3:00,16.8,63,12.5,14.6
 2003/12/05, 3:15,16.7,63,12.4,14.6
 2003/12/05, 3:30,16.5,64,12.5,14.5
 2003/12/05, 3:45,16.2,64,12.4,14.5
 2003/12/05, 4:00,16.2,64,12.4,14.5
 2003/12/05, 4:15,16,64,12.3,14.4
 2003/12/05, 4:30,15.9,64,12.3,14.4
 2003/12/05, 4:45,15.8,64,12.2,14.4
 2003/12/05, 5:00,15.6,64,12.2,14.3
 2003/12/05, 5:15,15.4,65,12.1,14.2
 2003/12/05, 5:30,15.3,64,12,14.2
 2003/12/05, 5:45,15.2,64.5,12.1,14.1
 2003/12/05, 6:00,15,65,12,14.2
 2003/12/05, 6:15,14.9,65,11.9,14.1
 2003/12/05, 6:30,14.8,65,11.9,14.3
 2003/12/05, 6:45,17.1,69,11.9,15.1
 2003/12/05, 7:00,19.5,63,11.8,15
 2003/12/05, 7:15,20.6,66.5,12,15
 2003/12/05, 7:30,19.6,67,11.9,15
 2003/12/05, 7:45,18.6,70.5,11.9,14.8
 2003/12/05, 8:00,17.6,82,11.8,14.8
 2003/12/05, 8:15,17.2,80.5,11.8,14.8
 2003/12/05, 8:30,17.1,79,11.8,14.7
 2003/12/05, 8:45,16.9,81.5,11.8,14.7
 2003/12/05, 9:00,16.8,83,11.9,14.6
 2003/12/05, 9:15,17.5,74.5,12,14.6
 2003/12/05, 9:30,18.7,64,12.1,14.5
 2003/12/05, 9:45,19.4,60,12.2,14.4
 2003/12/05,10:00,19.3,60,12.3,14.4
 2003/12/05,10:15,19.1,61,12.4,14.4
 2003/12/05,10:30,20.7,55,12.5,14.3
 2003/12/05,10:45,21,54,12.8,14.2
 2003/12/05,11:00,19.1,60,12.9,14.2
 2003/12/05,11:15,18.9,63,13.1,14.2
 2003/12/05,11:30,19,64,13.3,14.2
 2003/12/05,11:45,19.1,63,13.4,14.1
 2003/12/05,12:00,19.3,63,13.4,14.1
 2003/12/05,12:15,19.5,63,13.6,14.1
 2003/12/05,12:30,19.7,63,13.8,14
 2003/12/05,12:45,19.9,62,13.9,14
 2003/12/05,13:00,20.1,63,13.9,14
 2003/12/05,13:15,20.2,63,13.9,14.1
 2003/12/05,13:30,20.4,63,14,14
 2003/12/05,13:45,20.5,64,14,14
 2003/12/05,14:00,20.7,63,14.1,14
 2003/12/05,14:15,20.8,63,14.1,14
 2003/12/05,14:30,20.7,63,14.1,14
 2003/12/05,14:45,20.7,63,14.1,14
 2003/12/05,15:00,20.5,64,14.1,14
 2003/12/05,15:15,20.3,66.5,14.1,14
 2003/12/05,15:30,20,71,14.1,14
 2003/12/05,15:45,19.7,74.5,14.1,14
 2003/12/05,16:00,19.5,73,14.1,14
 2003/12/05,16:15,19.5,71.5,14.1,13.9
 2003/12/05,16:30,19.3,73,14.1,14
 2003/12/05,16:45,19.2,73,14.1,14
 2003/12/05,17:00,19.1,73,14,14
 2003/12/05,17:15,19,72,14,14
 2003/12/05,17:30,18.9,72,14,14
 2003/12/05,17:45,18.8,72,14,14
 2003/12/05,18:00,18.6,72,14,14
 2003/12/05,18:15,18.5,72,13.9,14
 2003/12/05,18:30,18.4,72,13.9,14
 2003/12/05,18:45,18.2,72,13.9,14
 2003/12/05,19:00,18.1,71,13.9,14
 2003/12/05,19:15,18,71,13.9,14.1
 2003/12/05,19:30,17.9,71,13.9,14
 2003/12/05,19:45,17.8,71,13.9,14.1
 2003/12/05,20:00,17.7,70,13.8,14
 2003/12/05,20:15,17.5,70.5,13.8,14.1
 2003/12/05,20:30,17.5,70,13.8,14.1
 2003/12/05,20:45,17.4,70,13.8,14.1
 2003/12/05,21:00,17.3,70,13.7,14.1
 2003/12/05,21:15,17.3,69.5,13.7,14.1
 2003/12/05,21:30,17.2,70,13.7,14.1
 2003/12/05,21:45,17.9,68.5,13.8,14.1
 2003/12/05,22:00,18.6,66,13.9,14.1
 2003/12/05,22:15,23.1,62,13.8,14.1
 2003/12/05,22:30,24,62,13.7,14
 2003/12/05,22:45,23.9,61,13.8,14.1
 2003/12/05,23:00,23.3,62,13.8,14.1
 2003/12/05,23:15,23.1,61.5,13.7,14.1
 2003/12/05,23:30,22.4,65,13.7,14.1
 2003/12/05,23:45,21.1,64.5,13.8,14.1
 2003/12/06, 0:00,20.3,68,13.8,14.1
 2003/12/06, 0:15,20.6,69,13.8,14.1
 2003/12/06, 0:30,21.4,69,13.8,14.1
 2003/12/06, 0:45,21,68,13.8,14.1
 2003/12/06, 1:00,20.5,68,13.8,14.1
 2003/12/06, 1:15,20.4,68,13.8,14.1
 2003/12/06, 1:30,20.1,68,13.8,14.1
 2003/12/06, 1:45,20,67,13.8,14.1
 2003/12/06, 2:00,19.7,67,13.8,14.1
 2003/12/06, 2:15,19.5,66,13.7,14.1
 2003/12/06, 2:30,19.3,66,13.7,14.1
 2003/12/06, 2:45,19.1,65.5,13.7,14.1
 2003/12/06, 3:00,19,65,13.7,14.1
 2003/12/06, 3:15,18.9,65,13.6,14.1
 2003/12/06, 3:30,18.7,65,13.7,14.1
 2003/12/06, 3:45,18.5,65,13.6,14.2
 2003/12/06, 4:00,18.4,65,13.6,14.2
 2003/12/06, 4:15,18.4,65,13.6,14.2
 2003/12/06, 4:30,18.2,65,13.5,14.1
 2003/12/06, 4:45,18.1,65,13.6,14.1
 2003/12/06, 5:00,17.9,65,13.5,14.1
 2003/12/06, 5:15,17.9,65,13.5,14.1
 2003/12/06, 5:30,17.7,65,13.5,14.2
 2003/12/06, 5:45,19.4,65.5,13.5,14.4
 2003/12/06, 6:00,22.7,69,13.5,14.8
 2003/12/06, 6:15,21.6,69,13.6,14.8
 2003/12/06, 6:30,21.2,68,13.6,14.8
 2003/12/06, 6:45,21.4,67,13.6,14.8
 2003/12/06, 7:00,21.5,66,13.6,14.8
 2003/12/06, 7:15,21.5,66,13.6,14.8
 2003/12/06, 7:30,21.7,65,13.6,14.7
 2003/12/06, 7:45,21.8,65,13.7,14.8
 2003/12/06, 8:00,21.9,64,13.7,14.8
 2003/12/06, 8:15,22,64,13.7,14.7
 2003/12/06, 8:30,22.1,64,13.7,14.7
 2003/12/06, 8:45,22,63,13.7,14.7
 2003/12/06, 9:00,22.2,64,13.8,14.9
 2003/12/06, 9:15,21.6,62.5,13.8,14.9
 2003/12/06, 9:30,21,64,13.7,15
 2003/12/06, 9:45,20.6,64,13.7,15
 2003/12/06,10:00,20.3,63,13.7,14.9
 2003/12/06,10:15,20,63.5,13.7,14.9
 2003/12/06,10:30,19.9,63,13.7,14.9
 2003/12/06,10:45,19.8,64,13.8,14.9
 2003/12/06,11:00,19.6,64,13.8,14.9
 2003/12/06,11:15,19.5,64,13.8,14.9
 2003/12/06,11:30,19.4,64,13.8,14.9
 2003/12/06,11:45,19.3,64,13.8,14.9
 2003/12/06,12:00,19.1,64,13.9,14.9
 2003/12/06,12:15,19.1,64,13.9,14.9
 2003/12/06,12:30,19.1,64,13.9,14.8
 2003/12/06,12:45,19.1,63.5,14,14.9
 2003/12/06,13:00,19.1,64,14,14.9
 2003/12/06,13:15,19,64,14,14.9
 2003/12/06,13:30,18.9,64,14,14.9
 2003/12/06,13:45,18.9,64,14.1,14.9
 2003/12/06,14:00,18.8,64,14.1,14.9
 2003/12/06,14:15,18.6,65,14.1,14.9
 2003/12/06,14:30,18.5,65,14.1,14.9
 2003/12/06,14:45,18.5,64.5,14.1,14.9
 2003/12/06,15:00,18.5,65,14.1,14.9
 2003/12/06,15:15,18.5,64.5,14.1,14.9
 2003/12/06,15:30,18.5,64,14.2,14.9
 2003/12/06,15:45,18.4,65,14.2,14.9
 2003/12/06,16:00,18.3,65,14.2,14.9
 2003/12/06,16:15,18.2,65,14.2,14.9
 2003/12/06,16:30,18.2,65,14.2,15
 2003/12/06,16:45,18.1,65,14.2,15
 2003/12/06,17:00,18.1,65,14.2,14.9
 2003/12/06,17:15,18,65,14.2,14.9
 2003/12/06,17:30,18,65,14.2,15
 2003/12/06,17:45,18,65,14.3,14.9
 2003/12/06,18:00,17.9,65,14.3,15
 2003/12/06,18:15,17.9,65,14.3,15
 2003/12/06,18:30,17.8,66,14.3,15
 2003/12/06,18:45,17.8,66,14.3,15
 2003/12/06,19:00,17.7,66,14.3,15
 2003/12/06,19:15,17.6,66,14.3,15.1
 2003/12/06,19:30,17.6,66,14.3,15
 2003/12/06,19:45,17.6,66,14.5,15.5
 2003/12/06,20:00,21.7,67,14.6,15.5
 2003/12/06,20:15,22.1,66,14.6,15.5
 2003/12/06,20:30,21.9,68,14.7,15.5
 2003/12/06,20:45,21.8,67,14.8,15.2
 2003/12/06,21:00,21.7,66,14.8,15.2
 2003/12/06,21:15,21.9,65,14.7,15.2
 2003/12/06,21:30,22.1,66,14.7,15.2
 2003/12/06,21:45,22.4,66,14.8,15.4
 2003/12/06,22:00,22.6,65,14.7,15.6
 2003/12/06,22:15,22.8,63,14.7,15.6
 2003/12/06,22:30,23.2,63,14.8,15.6
 2003/12/06,22:45,23.3,63.5,14.7,15.6
 2003/12/06,23:00,23.4,63,14.7,15.6
 2003/12/06,23:15,23.5,63,14.7,15.4
 2003/12/06,23:30,23.7,63,14.7,15.4
 2003/12/06,23:45,23.9,62,14.7,15.4
 2003/12/07, 0:00,24,62,14.7,15.3
 2003/12/07, 0:15,23.5,61.5,14.7,15.3
 2003/12/07, 0:30,22.3,63,14.7,15.3
 2003/12/07, 0:45,21.9,64,14.8,15.3
 2003/12/07, 1:00,21.5,64,14.7,15.3
 2003/12/07, 1:15,21.2,64,14.7,15.3
 2003/12/07, 1:30,20.9,64,14.7,15.3
 2003/12/07, 1:45,20.7,64,14.8,15.3
 2003/12/07, 2:00,20.5,63,14.7,15.3
 2003/12/07, 2:15,20.2,63.5,14.7,15.3
 2003/12/07, 2:30,20.1,63,14.6,15.3
 2003/12/07, 2:45,19.9,63,14.6,15.3
 2003/12/07, 3:00,19.7,63,14.6,15.3
 2003/12/07, 3:15,19.5,63,14.6,15.1
 2003/12/07, 3:30,19.4,64,14.5,15
 2003/12/07, 3:45,19.1,64,14.5,15.1
 2003/12/07, 4:00,19,64,14.5,15
 2003/12/07, 4:15,18.9,64,14.5,15.1
 2003/12/07, 4:30,18.8,64,14.5,15.1
 2003/12/07, 4:45,18.6,64.5,14.4,15
 2003/12/07, 5:00,18.6,65,14.4,15
 2003/12/07, 5:15,18.5,65,14.4,14.9
 2003/12/07, 5:30,18.4,65,14.4,14.8
 2003/12/07, 5:45,18.4,65,14.4,14.8
 2003/12/07, 6:00,18.2,65,14.3,14.9
 2003/12/07, 6:15,18.1,65,14.3,14.9
 2003/12/07, 6:30,18,65,14.3,14.8
 2003/12/07, 6:45,18,65,14.2,14.9
 2003/12/07, 7:00,17.8,65,14.3,14.8
 2003/12/07, 7:15,17.8,65,14.2,14.9
 2003/12/07, 7:30,17.7,65,14.2,14.9
 2003/12/07, 7:45,17.6,65,14.2,14.9
 2003/12/07, 8:00,18.2,70,14.2,15.2
 2003/12/07, 8:15,19.5,66,14.2,15.2
 2003/12/07, 8:30,19,64,14.2,15.2
 2003/12/07, 8:45,19,71.5,14.2,15.2
 2003/12/07, 9:00,19.4,73,14.3,15.2
 2003/12/07, 9:15,19.9,68.5,14.3,15.4
 2003/12/07, 9:30,20.1,69,14.3,15.4
 2003/12/07, 9:45,21.7,60,14.7,15.4
 2003/12/07,10:00,24.1,52,15,15.4
 2003/12/07,10:15,22.9,47.5,15.6,15.3
 2003/12/07,10:30,31.9,28,15.3,15.4
 2003/12/07,10:45,33,29.5,15.4,15.3
 2003/12/07,11:00,29.4,38,15.5,15.3
 2003/12/07,11:15,24.4,47,15.8,15.2
 2003/12/07,11:30,21.9,55,16.2,15.2
 2003/12/07,11:45,21.2,58.5,16.2,15.3
 2003/12/07,12:00,21,60,16.3,15.2
 2003/12/07,12:15,20.8,60,16.4,15.2
 2003/12/07,12:30,20.9,59,16.4,15.4
 2003/12/07,12:45,20.8,51,16,15.4
 2003/12/07,13:00,20.7,53,16.2,15.4
 2003/12/07,13:15,20.8,57.5,16.1,15.4
 2003/12/07,13:30,21.5,59,15.9,15.4
 2003/12/07,13:45,21.5,61,15.9,15.4
 2003/12/07,14:00,21.7,62,15.7,15.1
 2003/12/07,14:15,21.8,62,15.6,15.1
 2003/12/07,14:30,21.9,62,15.6,15.1
 2003/12/07,14:45,21.9,61.5,15.5,15.1
 2003/12/07,15:00,22,61,15.4,15.1
 2003/12/07,15:15,21.4,58.5,15.4,15.1
 2003/12/07,15:30,20.8,58,15.2,15.1
 2003/12/07,15:45,20.4,59,15.1,15.1
 2003/12/07,16:00,20.3,61,15.1,15.1
 2003/12/07,16:15,20.2,62,14.9,14.9
 2003/12/07,16:30,20.1,63,15,14.9
 2003/12/07,16:45,20.3,63,14.9,14.9
 2003/12/07,17:00,20.6,64,14.8,14.8
 2003/12/07,17:15,20.5,60,14.6,15.1
 2003/12/07,17:30,20.7,61,14.6,15.1
 2003/12/07,17:45,20.9,61,14.5,15.1
 2003/12/07,18:00,20.9,62,14.4,15
 2003/12/07,18:15,21,62,14.4,14.9
 2003/12/07,18:30,21,62,14.3,15
 2003/12/07,18:45,21,60.5,14.2,14.9
 2003/12/07,19:00,21.2,59,14.2,14.9
 2003/12/07,19:15,21.1,59,14.2,14.9